Wind_Speed
43 40 35 31 28 18 17 16 14 13 14 14 12 11 11 10 10 12 14 15 15 14 14 15 17 18 20 20 21 21 22 24 29 31 30 28 29 29 32 30 33 33 31
46 43 39 33 31 24 19 16 14 14 14 13 10 9 9 9 10 11 12 10 12 12 13 15 17 18 22 22 22 22 22 23 28 33 34 33 32 31 34 36 38 36 36
50 46 42 36 33 29 24 19 16 15 13 11 10 9 8 8 9 9 11 12 12 13 16 17 19 18 20 22 24 25 25 25 26 30 34 34 35 33 35 38 41 44 44
53 49 47 44 39 33 26 19 18 16 14 14 13 10 10 10 11 12 14 14 15 16 16 18 19 20 22 24 25 27 26 26 26 28 33 36 34 34 37 41 47 49 54
57 53 51 48 41 33 27 20 18 19 17 19 16 13 11 13 12 14 16 17 18 17 18 17 19 23 24 25 24 26 25 25 28 28 31 34 37 35 38 40 47 49 51
58 57 53 43 34 33 27 23 21 20 22 23 20 16 14 14 13 14 18 20 20 20 18 19 21 26 27 23 24 26 25 26 26 28 30 32 35 35 35 38 44 48 49
54 55 48 44 44 32 30 30 23 23 23 26 22 18 16 15 14 17 20 19 21 22 20 21 23 19 20 23 23 23 23 23 25 27 31 32 33 32 36 41 47 45 53
49 50 52 43 42 30 33 31 25 26 24 26 22 19 19 18 18 20 22 22 21 21 22 23 23 24 24 22 23 24 22 22 25 26 31 35 34 33 36 42 48 53 55
44 47 44 36 36 26 31 28 29 29 26 23 21 20 23 23 26 18 20 21 21 21 23 24 24 25 21 21 22 22 23 25 26 28 31 32 34 36 36 41 45 53 50
40 38 35 30 25 28 30 29 30 29 23 27 23 24 23 21 23 17 20 21 20 22 23 24 27 20 19 21 22 22 25 28 29 33 34 29 24 27 34 41 52 49 47
34 35 34 32 29 34 39 32 26 20 30 28 23 22 24 25 24 22 20 18 18 18 21 24 19 18 20 18 18 21 26 29 34 36 32 26 22 26 36 46 54 48 46
27 31 31 27 27 24 23 22 12 18 30 23 26 24 22 20 20 19 18 18 17 17 17 19 18 19 19 18 20 23 25 30 32 30 27 24 23 27 41 49 54 46 39
24 25 28 22 18 15 11 13 20 15 19 27 22 23 18 16 16 16 16 15 18 15 18 18 18 18 18 17 20 25 28 29 26 25 24 23 23 26 35 47 52 41 30
18 22 19 11 7 16 18 26 19 16 21 18 19 19 15 12 13 13 14 15 15 17 18 17 16 17 15 18 21 25 24 20 20 21 21 21 22 24 30 41 46 45 36
13 14 7 10 10 15 24 24 17 18 19 18 15 13 12 12 13 11 12 15 17 16 17 16 15 15 16 19 22 17 15 14 15 17 19 21 23 25 26 34 39 44 38
14 19 11 24 20 27 20 14 14 19 19 13 11 9 8 10 11 12 12 13 14 15 15 14 13 15 19 18 15 12 12 13 15 18 20 22 24 25 24 29 32 37 43
17 14 10 15 21 19 19 18 16 14 9 9 10 11 13 13 11 10 10 10 12 13 13 12 14 16 14 13 12 13 15 16 17 18 20 22 23 23 22 23 28 34 40
9 13 9 11 14 18 16 15 14 9 8 10 10 9 9 8 10 9 7 8 8 10 11 13 15 11 10 11 12 13 14 15 16 18 20 21 22 22 21 21 21 26 30
10 12 10 8 9 12 14 12 9 9 10 10 10 6 8 8 8 7 9 11 12 14 14 11 8 10 10 11 13 15 16 14 14 16 17 19 21 21 19 19 18 19 22
13 11 9 7 8 9 9 9 11 10 11 11 8 6 4 5 8 9 10 9 9 8 8 7 7 9 10 12 14 15 12 9 10 11 14 16 18 20 19 17 18 19 18
12 13 10 9 10 10 10 11 10 10 10 10 8 8 4 4 6 8 8 9 8 7 7 5 7 10 11 11 11 9 6 6 8 9 12 14 17 20 20 17 15 17 17
9 7 8 10 11 12 11 9 8 10 13 13 11 10 7 4 4 7 9 9 7 6 5 6 10 10 9 7 5 4 4 5 7 7 10 12 15 18 20 19 16 14 15
6 7 8 9 10 10 9 9 10 11 12 11 10 9 7 6 6 8 9 9 8 6 6 8 9 8 4 2 2 3 3 4 6 8 10 11 13 15 17 19 20 18 15
8 10 10 10 9 10 10 9 9 10 9 9 10 11 10 9 10 9 9 8 8 7 7 8 5 4 3 2 2 2 3 5 7 9 9 10 11 12 13 15 17 17 17
8 9 7 6 6 6 6 8 9 11 10 8 9 11 13 14 13 11 9 6 6 6 6 4 4 3 3 3 4 5 5 4 5 7 9 8 8 9 11 12 13 14 16
8 9 9 8 9 9 10 11 11 12 11 9 10 12 15 15 14 13 10 8 8 6 7 7 3 1 1 2 4 6 7 6 5 5 7 6 6 6 7 9 11 12 13
Wind_Direction
222 223 223 224 226 228 227 224 228 232 236 239 242 252 264 272 274 275 281 283 278 280 279 279 284 286 286 290 293 294 291 291 290 296 305 313 315 323 331 331 325 319 308
226 223 222 224 225 228 229 223 219 224 227 231 239 255 264 270 276 283 286 283 285 285 290 289 288 282 285 287 287 293 293 292 288 292 300 307 309 318 322 325 328 324 315
227 224 222 222 225 230 230 223 223 226 225 228 238 239 248 262 266 275 279 278 282 288 293 289 290 280 283 289 288 286 290 292 288 289 295 303 308 313 320 324 327 327 321
230 225 223 221 231 227 227 226 229 230 226 226 234 233 245 259 267 272 274 279 291 292 291 292 287 286 295 295 291 286 285 288 287 286 287 296 305 308 316 322 321 322 320
233 227 225 225 228 225 222 225 232 230 222 237 233 238 248 258 270 277 280 284 290 291 291 296 292 292 294 293 293 290 289 289 290 287 286 295 299 302 313 318 319 318 313
236 231 223 224 230 224 223 227 225 228 229 232 238 242 252 264 284 290 288 290 289 283 287 288 288 292 291 284 288 289 290 291 289 288 290 290 297 300 307 313 319 315 307
242 230 227 225 222 217 231 232 223 228 232 237 240 248 261 275 287 291 287 288 289 282 279 282 297 300 309 294 291 286 289 289 289 292 292 291 290 299 309 305 316 310 305
245 233 226 229 225 223 219 231 231 234 237 241 246 255 264 269 271 285 281 285 287 280 273 282 296 297 304 294 288 287 291 291 294 292 291 290 284 291 309 309 315 310 309
247 238 229 239 221 221 219 235 232 238 244 248 250 259 270 274 281 286 277 278 281 279 277 280 293 300 301 290 288 292 296 300 304 302 299 294 287 292 304 316 316 313 300
247 239 235 233 237 224 231 242 241 246 253 253 252 263 271 283 286 276 278 277 284 283 277 284 295 297 299 295 291 300 304 309 313 314 313 308 304 309 316 326 325 310 302
240 232 227 220 226 225 233 244 254 275 263 257 267 281 285 275 282 284 284 283 291 283 285 290 297 299 295 287 291 305 309 315 318 319 319 316 309 326 344 338 331 327 309
234 225 216 219 222 226 232 237 208 323 274 270 270 279 281 270 276 280 283 290 287 292 290 292 300 301 296 296 303 308 311 318 318 319 316 319 316 329 349 344 339 340 332
220 215 211 217 226 245 245 267 278 216 246 274 276 287 274 270 272 271 273 280 293 290 289 295 300 298 293 296 303 304 313 316 319 319 325 326 327 333 344 347 346 2 10
204 201 205 237 296 283 260 242 240 266 260 265 270 270 270 269 261 258 274 287 287 285 294 301 299 290 284 297 303 303 310 315 321 326 332 333 338 343 353 353 350 6 5
176 200 168 244 268 252 228 232 251 262 245 262 254 266 274 259 253 265 289 288 282 288 288 291 292 285 286 295 301 307 312 319 327 333 337 341 345 349 356 357 356 7 6
166 165 221 238 226 230 237 249 251 235 252 250 263 264 257 270 289 296 286 283 284 283 278 283 283 289 298 302 305 310 320 331 337 339 342 343 346 349 355 1 3 12 18
202 211 211 231 228 236 241 252 254 249 243 265 281 287 297 297 290 278 284 287 282 272 268 271 283 292 292 302 312 318 326 332 336 337 342 344 346 350 351 358 13 13 20
204 216 218 221 230 241 239 249 243 230 277 281 287 282 284 280 281 287 292 291 284 265 271 279 285 276 289 303 313 317 320 324 332 339 343 347 350 352 353 1 10 17 20
188 202 209 201 205 220 226 211 224 247 258 269 264 259 274 281 281 277 273 285 277 273 277 276 261 280 294 305 312 320 321 323 333 337 343 353 356 359 1 3 8 20 22
208 193 200 226 253 214 214 236 255 240 258 252 242 247 254 295 296 292 286 272 269 263 258 267 285 294 301 307 310 317 321 323 332 342 353 360 5 4 5 5 11 19 27
216 219 218 222 227 232 239 249 229 243 250 235 221 209 234 282 310 308 292 274 265 260 269 293 307 306 306 313 324 333 337 347 349 357 3 11 12 13 14 11 14 19 26
216 230 231 233 234 234 243 232 241 251 229 213 210 211 224 248 310 315 306 285 273 269 270 307 321 315 310 320 342 6 18 8 5 5 8 9 11 14 18 22 22 21 26
253 242 237 238 230 223 221 238 235 225 214 218 234 234 257 269 304 312 306 289 270 273 281 313 320 321 311 317 344 359 8 8 5 5 5 6 6 11 15 22 28 33 33
247 254 251 221 224 236 239 231 220 222 235 259 256 255 260 278 283 283 299 296 268 261 281 306 304 316 305 296 298 309 327 344 354 1 2 3 1 6 10 18 27 32 35
211 208 216 235 238 220 214 226 235 241 256 262 248 256 264 259 256 261 281 280 266 275 282 265 294 303 283 278 288 294 299 318 343 359 359 358 360 1 10 18 28 33 41
240 231 231 236 227 240 248 244 246 255 262 264 260 267 257 255 251 253 259 269 264 266 274 257 256 294 264 270 298 317 306 303 319 352 360 354 360 4 14 24 33 44 51
Height
1509 1513 1517 1521 1525 1527 1528 1529 1530 1530 1531 1532 1533 1534 1535 1535 1535 1535 1534 1534 1533 1532 1532 1530 1530 1529 1527 1526 1524 1522 1520 1517 1511 1507 1507 1506 1501 1498 1496 1492 1489 1484 1479
1502 1507 1511 1516 1520 1522 1525 1525 1525 1527 1528 1529 1530 1531 1532 1532 1532 1531 1530 1529 1528 1527 1528 1527 1525 1523 1522 1522 1520 1517 1515 1513 1509 1503 1500 1498 1496 1494 1489 1484 1480 1477 1472
1494 1499 1504 1510 1513 1516 1519 1521 1522 1524 1525 1526 1526 1527 1529 1529 1529 1528 1527 1526 1525 1524 1523 1523 1521 1519 1517 1517 1516 1513 1510 1507 1505 1500 1495 1493 1489 1487 1481 1476 1470 1466 1463
1484 1490 1495 1499 1503 1508 1513 1515 1518 1520 1522 1522 1523 1524 1524 1526 1525 1524 1524 1522 1521 1520 1520 1519 1517 1516 1513 1511 1510 1507 1504 1501 1498 1496 1491 1486 1483 1479 1475 1467 1459 1457 1450
1474 1479 1484 1491 1496 1504 1505 1507 1513 1516 1517 1520 1519 1519 1520 1521 1520 1521 1521 1521 1519 1516 1515 1514 1513 1511 1507 1506 1503 1502 1499 1496 1492 1489 1485 1481 1475 1472 1467 1462 1454 1446 1440
1465 1468 1477 1491 1497 1503 1503 1502 1506 1511 1513 1514 1514 1514 1514 1517 1518 1518 1517 1517 1515 1513 1511 1511 1507 1505 1501 1499 1496 1495 1493 1489 1486 1482 1478 1475 1470 1466 1461 1455 1448 1439 1425
1456 1462 1472 1480 1487 1494 1496 1499 1499 1503 1508 1509 1508 1511 1513 1514 1514 1513 1512 1510 1510 1508 1506 1504 1502 1499 1496 1494 1491 1489 1488 1485 1481 1476 1472 1468 1464 1461 1454 1447 1440 1432 1422
1452 1457 1465 1465 1478 1485 1486 1492 1496 1499 1501 1504 1506 1508 1507 1508 1506 1503 1505 1504 1502 1502 1500 1498 1495 1491 1490 1487 1486 1483 1481 1479 1476 1471 1466 1461 1456 1453 1448 1439 1430 1418 1408
1446 1452 1460 1466 1475 1477 1479 1485 1490 1492 1498 1500 1501 1502 1501 1502 1502 1498 1498 1497 1496 1494 1492 1492 1487 1484 1483 1481 1480 1477 1474 1472 1468 1464 1459 1453 1450 1446 1441 1430 1419 1407 1392
1444 1451 1458 1464 1467 1472 1478 1484 1486 1490 1493 1496 1494 1495 1495 1496 1495 1494 1493 1491 1489 1487 1486 1486 1480 1478 1478 1477 1475 1471 1467 1464 1459 1454 1450 1445 1442 1438 1433 1421 1408 1393 1383
1444 1449 1453 1460 1465 1469 1473 1477 1480 1487 1490 1489 1493 1493 1490 1490 1490 1489 1488 1485 1483 1481 1481 1481 1475 1472 1473 1472 1470 1467 1462 1458 1453 1447 1441 1437 1434 1429 1419 1410 1399 1384 1370
1443 1448 1453 1458 1462 1466 1470 1471 1472 1477 1476 1483 1483 1483 1483 1481 1482 1482 1482 1481 1478 1475 1476 1476 1469 1468 1468 1468 1466 1463 1458 1453 1448 1443 1437 1433 1427 1421 1410 1400 1385 1366 1354
1441 1447 1453 1458 1460 1463 1467 1473 1474 1472 1473 1476 1477 1477 1475 1475 1474 1475 1477 1475 1472 1470 1473 1470 1466 1464 1465 1464 1463 1459 1453 1449 1444 1438 1433 1428 1423 1416 1408 1396 1381 1360 1348
1443 1449 1455 1460 1462 1464 1460 1465 1468 1467 1472 1467 1469 1471 1470 1468 1470 1471 1471 1468 1465 1469 1467 1464 1463 1463 1462 1462 1459 1454 1449 1445 1440 1435 1431 1426 1419 1413 1405 1395 1381 1363 1351
1441 1450 1454 1458 1463 1462 1460 1457 1462 1466 1468 1466 1465 1465 1465 1466 1468 1465 1463 1463 1464 1463 1462 1462 1462 1461 1460 1457 1454 1449 1445 1442 1438 1434 1430 1424 1417 1411 1404 1395 1385 1371 1357
1442 1445 1451 1450 1450 1452 1457 1459 1459 1460 1462 1463 1461 1461 1462 1463 1460 1459 1461 1460 1459 1457 1459 1459 1458 1458 1457 1453 1450 1447 1444 1440 1437 1433 1428 1423 1416 1410 1403 1397 1387 1378 1364
1436 1441 1439 1446 1448 1451 1451 1455 1456 1458 1458 1458 1459 1458 1457 1456 1457 1460 1458 1456 1455 1457 1456 1456 1455 1455 1453 1450 1447 1444 1442 1439 1435 1431 1427 1422 1416 1411 1404 1399 1391 1382 1370
1436 1438 1438 1442 1445 1449 1450 1452 1453 1455 1455 1455 1454 1455 1455 1455 1456 1455 1454 1453 1453 1455 1454 1453 1453 1451 1449 1447 1445 1443 1441 1438 1434 1430 1426 1421 1416 1411 1405 1399 1394 1388 1381
1434 1435 1436 1438 1440 1444 1446 1447 1449 1450 1451 1452 1452 1452 1453 1452 1453 1452 1452 1451 1452 1453 1452 1450 1449 1449 1447 1445 1443 1441 1439 1436 1433 1430 1426 1421 1416 1412 1407 1402 1397 1391 1386
1435 1435 1436 1438 1440 1442 1443 1445 1446 1448 1449 1448 1449 1450 1451 1451 1451 1450 1450 1449 1449 1450 1450 1448 1447 1446 1444 1442 1441 1439 1437 1435 1433 1430 1426 1422 1419 1414 1409 1404 1399 1394 1391
1433 1434 1434 1437 1438 1440 1441 1443 1445 1445 1446 1447 1447 1448 1449 1449 1449 1449 1448 1447 1447 1448 1448 1447 1446 1444 1442 1440 1438 1437 1436 1434 1432 1429 1427 1424 1420 1416 1412 1406 1402 1397 1394
1430 1431 1432 1434 1435 1437 1438 1439 1441 1442 1444 1445 1446 1445 1445 1446 1445 1447 1447 1445 1445 1445 1445 1445 1443 1442 1440 1439 1438 1437 1436 1434 1432 1430 1428 1425 1422 1418 1415 1410 1405 1401 1397
1428 1429 1430 1432 1432 1433 1435 1436 1437 1438 1440 1440 1443 1442 1442 1443 1444 1442 1445 1443 1443 1443 1443 1443 1441 1440 1439 1438 1438 1437 1437 1435 1433 1431 1429 1426 1424 1421 1418 1414 1410 1406 1402
1426 1427 1428 1428 1430 1432 1433 1434 1434 1435 1436 1436 1437 1437 1439 1440 1440 1441 1442 1441 1440 1441 1441 1441 1440 1440 1439 1438 1438 1437 1437 1435 1433 1431 1429 1427 1425 1423 1420 1418 1414 1410 1407
1424 1425 1426 1427 1429 1429 1430 1431 1432 1432 1432 1432 1433 1433 1435 1436 1437 1438 1439 1439 1439 1439 1439 1439 1439 1439 1439 1438 1437 1436 1436 1435 1433 1432 1430 1428 1426 1424 1422 1420 1418 1414 1412
1423 1423 1423 1425 1426 1427 1428 1428 1429 1428 1428 1429 1430 1431 1432 1433 1434 1435 1435 1436 1436 1437 1438 1438 1438 1438 1438 1438 1437 1435 1434 1434 1433 1433 1431 1429 1427 1426 1425 1423 1421 1419 1417